Regional Weather Roundup
Issued by NWS

Home | Current Version | Previous Version | Text Only | Print | Product List | Glossary Off
Versions: 1 2 3 4 5 6 7 8 9 10 11 12 13 14 15 16 17 18 19 20 21 22 23 24 25 26 27 28 29 30 31 32 33 34 35 36 37 38 39 40 41 42 43 44 45 46 47 48 49 50

000
ASUS43 KMKX 221211
RWRWI

WISCONSIN REGIONAL WEATHER ROUNDUP
NATIONAL WEATHER SERVICE MILWAUKEE/SULLIVAN WI
700 AM CDT WED OCT 22 2014

NOTE: "FAIR" INDICATES FEW OR NO CLOUDS BELOW 12,000 FEET WITH NO
SIGNIFICANT WEATHER AND/OR OBSTRUCTIONS TO VISIBILITY.

WIZ001-002-006>008-014>016-023>028-221300-
NORTHWEST WISCONSIN

CITY           SKY/WX    TMP DP  RH WIND       PRES   REMARKS
SUPERIOR ARPT  CLEAR     27  27  97 CALM      30.23S
6HR MIN TEMP:  27; 6HR MAX TEMP:  31;

ASHLAND        CLEAR     28  27  96 SE3       30.27S
6HR MIN TEMP:  26; 6HR MAX TEMP:  31;

HAYWARD        CLEAR     39  33  79 S8        30.27R WCI  33
6HR MIN TEMP:  38; 6HR MAX TEMP:  42;

SIREN          CLEAR     40  34  80 SE7       30.23S WCI  35
6HR MIN TEMP:  40; 6HR MAX TEMP:  44;

CUMBERLAND     CLEAR     36  32  87 SE8       30.25S WCI  29
RICE LAKE      CLEAR     37  33  87 SE10      30.28S WCI  29
6HR MIN TEMP:  36; 6HR MAX TEMP:  40;

CHETEK         CLEAR     35  33  92 SE8       30.28S WCI  29
6HR MIN TEMP:  35; 6HR MAX TEMP:  39;

LADYSMITH      CLEAR     32  31  95 SE5       30.31S WCI  27
6HR MIN TEMP:  32; 6HR MAX TEMP:  37;

EAU CLAIRE     CLEAR     37  33  85 SE6       30.28S WCI  32
6HR MIN TEMP:  36; 6HR MAX TEMP:  41;

MENOMONIE      CLEAR     34  32  92 E8        30.28S WCI  28
NEW RICHMOND   CLEAR     38  35  89 SE7       30.24S WCI  32
6HR MIN TEMP:  37; 6HR MAX TEMP:  41;

OSCEOLA        CLEAR     40  37  89 SE8       30.25S WCI  34
6HR MIN TEMP:  39; 6HR MAX TEMP:  43;

$$

WIZ003>005-009-010-017-018-221300-
NORTH CENTRAL WISCONSIN

CITY           SKY/WX    TMP DP  RH WIND       PRES   REMARKS
MANITOWISH WTR CLEAR     32  32 100 S3        30.30S
6HR MIN TEMP:  30; 6HR MAX TEMP:  34;

ARBOR VITAE    CLEAR     34  32  94 SE3       30.31S
6HR MIN TEMP:  31; 6HR MAX TEMP:  38;

WOODRUFF       CLEAR     34  32  94 SE3       30.31S
6HR MIN TEMP:  31; 6HR MAX TEMP:  38;

RHINELANDER    FAIR      25  24  96 SE3       30.33R
6HR MIN TEMP:  25; 6HR MAX TEMP:  32;

EAGLE RIVER    PTCLDY    28  28 100 CALM      30.32S
6HR MIN TEMP:  25; 6HR MAX TEMP:  32;

LAND O LAKES   CLEAR     25  25  97 CALM      30.32S
6HR MIN TEMP:  22; 6HR MAX TEMP:  27;

PHILLIPS       CLEAR     31  30  96 CALM      30.29R
6HR MIN TEMP:  28; 6HR MAX TEMP:  33;

TOMAHAWK       CLEAR     26  25  96 CALM      30.32S
6HR MIN TEMP:  24; 6HR MAX TEMP:  30;

MEDFORD        CLEAR     32  31  97 SE5       30.31R WCI  27
6HR MIN TEMP:  30; 6HR MAX TEMP:  34;

MERRILL        CLEAR     24  23  97 CALM      30.34R
6HR MIN TEMP:  23; 6HR MAX TEMP:  32;

$$

WIZ029-030-035-036-043>047-221300-
CENTRAL WISCONSIN

CITY           SKY/WX    TMP DP  RH WIND       PRES   REMARKS
WAUSAU         CLEAR     30  28  92 CALM      30.33R
6HR MIN TEMP:  29; 6HR MAX TEMP:  34;

MOSINEE        CLEAR     30  30 100 CALM      30.34R
MARSHFIELD     CLEAR     30  28  92 E7        30.32S WCI  23
6HR MIN TEMP:  30; 6HR MAX TEMP:  36;

STEVENS POINT  CLEAR     24  23  96 CALM      30.35R
6HR MIN TEMP:  23; 6HR MAX TEMP:  28; 6HR PCP:  0.03;

WAUPACA        PTCLDY    30  29  96 CALM      30.36S FOG
6HR MIN TEMP:  29; 6HR MAX TEMP:  33;

WAUTOMA        CLEAR     23  22  96 CALM      30.36R
6HR MIN TEMP:  23; 6HR MAX TEMP:  28;

WISC RAPIDS    CLEAR     27  25  92 E3        30.36R
6HR MIN TEMP:  26; 6HR MAX TEMP:  31;

CAMP DOUGLAS   CLEAR     23  23 100 SE2       30.33S
$$

WIZ011>013-019>022-031-037>040-048>050-221300-
NORTHEAST WISCONSIN

CITY           SKY/WX    TMP DP  RH WIND       PRES   REMARKS
ANTIGO         FOG       31  31 100 SE3       30.34R VSB 1/4
6HR MIN TEMP:  28; 6HR MAX TEMP:  32;

SHAWANO        PTCLDY    32  30  93 NE3       30.37R
6HR MIN TEMP:  31; 6HR MAX TEMP:  38;

OCONTO         PTCLDY    28  28 100 CALM      30.37R
6HR MIN TEMP:  25; 6HR MAX TEMP:  32;

STURGEON BAY   PTCLDY    36  30  80 SE5       30.36S WCI  32
6HR MIN TEMP:  34; 6HR MAX TEMP:  39;

GREEN BAY      FOG       32  32 100 CALM      30.36S VSB<1/4
6HR MIN TEMP:  29; 6HR MAX TEMP:  32;

MANITOWOC      PTCLDY    29  28  96 CALM      30.36R
6HR MIN TEMP:  29; 6HR MAX TEMP:  32;

APPLETON       PTCLDY    32  30  93 VRB3      30.35R
CLINTONVILLE   PTCLDY    30  28  93 CALM      30.36R
OSHKOSH        PTCLDY    32  28  85 CALM      30.34R
6HR MIN TEMP:  30; 6HR MAX TEMP:  36;

$$

WIZ032>034-041-042-053>061-221300-
SOUTHWEST WISCONSIN

CITY           SKY/WX    TMP DP  RH WIND       PRES   REMARKS
LA CROSSE      CLEAR     36  33  89 SE6       30.31R WCI  31
6HR MIN TEMP:  36; 6HR MAX TEMP:  41;

SPARTA         CLEAR     26  25  96 CALM      30.32S
6HR MIN TEMP:  25; 6HR MAX TEMP:  28;

VIROQUA        CLEAR     34  34 100 SE7       30.30S WCI  28
6HR MIN TEMP:  34; 6HR MAX TEMP:  37;

BOSCOBEL       FOG       33  32  96 CALM      30.34R VSB 1/4
6HR MIN TEMP:  30; 6HR MAX TEMP:  35;

PRAIRIE DU CHI CLEAR     34  32  92 E3        30.33R
6HR MIN TEMP:  34; 6HR MAX TEMP:  40;

PLATTEVILLE    CLEAR     34  32  95 E8        30.33R WCI  27
6HR MIN TEMP:  33; 6HR MAX TEMP:  37;

$$

WIZ056-057-062-063-064-067-068-221300-
SOUTH CENTRAL WISCONSIN

CITY           SKY/WX    TMP DP  RH WIND       PRES   REMARKS
REEDSBURG      CLOUDY    26  26  99 CALM      30.34R FOG
6HR MIN TEMP:  26; 6HR MAX TEMP:  31;

BARABOO/DELLS  FOG       27  26  97 CALM      30.34S VSB 1/4
6HR MIN TEMP:  26; 6HR MAX TEMP:  32;

LONE ROCK      FOG       31  27  85 E5        30.35R VSB 1/2 WCI  26
6HR MIN TEMP:  31; 6HR MAX TEMP:  35;

MINERAL POINT  PTCLDY    36  34  93 E3        30.32R FOG
MADISON        FOG       29  27  92 CALM      30.35R VSB 1/2
6HR MIN TEMP:  27; 6HR MAX TEMP:  31;

MIDDLETON      CLOUDY    29  29 100 CALM      30.35R VSB<1/4
6HR MIN TEMP:  28; 6HR MAX TEMP:  32;

WATERTOWN      PTCLDY    27  27 100 CALM      30.34R
6HR MIN TEMP:  25; 6HR MAX TEMP:  30;

MONROE         PTCLDY    36  34  93 NE5       30.32R FOG     WCI  32
JANESVILLE     FOG       28  27  93 CALM      30.33R VSB 1/2
$$

WIZ051-052-058>065-066-070>072-221300-
SOUTHEAST WISCONSIN

CITY           SKY/WX    TMP DP  RH WIND       PRES   REMARKS
MILWAUKEE      PTCLDY    35  32  88 CALM      30.34R
6HR MIN TEMP:  35; 6HR MAX TEMP:  40;

WAUKESHA       CLEAR     30  30 100 CALM      30.34R
MILWAUKEE/TIMM CLEAR     30  28  93 CALM      30.34R
RACINE         MOCLDY    37  34  89 CALM      30.35R
6HR MIN TEMP:  35; 6HR MAX TEMP:  41;

BURLINGTON     PTCLDY    25  25  99 CALM      30.33S FOG
6HR MIN TEMP:  25; 6HR MAX TEMP:  28;

KENOSHA        PTCLDY    31  29  92 CALM      30.33S
6HR MIN TEMP:  30; 6HR MAX TEMP:  38;

FOND DU LAC    PTCLDY    27  24  89 CALM      30.34S
6HR MIN TEMP:  26; 6HR MAX TEMP:  34;

SHEBOYGAN      PTCLDY    28  26  92 N5        30.35R WCI  23
6HR MIN TEMP:  27; 6HR MAX TEMP:  33;

WEST BEND      PTCLDY    30  28  93 CALM      30.35R
JUNEAU         CLEAR     30  29  96 CALM      30.35R
6HR MIN TEMP:  29; 6HR MAX TEMP:  34;

$$

LSZ147-162-221300-
LAKE SUPERIOR

STATION/POSITION TIME  TEMP    WIND        PRES    WAVE
                       AIR SEA DIR/SP/G            HT/PER
                 (UTC) (F)     (DEG/KT/KT) (MB)    (FT/S)
W MID LAKE BUOY  1150   44 46  170/ 14/ 16 1025.8R   2/ 4
DEVILS ISLAND    1200   44     180/  5/  7 1025.5R
PORT WING        1100   42     150/  5/ 12 1024.0
SAXON HARBOR     1100   33      CALM  /  2 1024.7R
$$

LMZ867-665-643>646-221300-
LAKE MICHIGAN

STATION/POSITION TIME  TEMP    WIND        PRES    WAVE
                       AIR SEA DIR/SP/G            HT/PER



USA.gov is the U.S. government's official web portal to all federal, state and local government web resources and services.